Miscellaneous Local Product
Issued by NWS North Platte, NE

Home | Current Version | Previous Version | Text Only | Print | Product List | Glossary On
Versions: 1 2 3 4 5 6 7 8 9 10 11 12 13 14 15 16 17 18 19 20 21 22 23 24 25 26 27 28 29 30 31 32 33 34 35 36 37 38 39 40 41 42 43 44 45 46 47 48 49 50
000
AXUS43 KLBF 040510
MISLBF


WESTERN AND NORTH CENTRAL NEBRASKA HOURLY WEATHER ROUNDUP
NATIONAL WEATHER SERVICE NORTH PLATTE NE
1100 PM CST TUE MAR 03 2015

***STATIONS NOT REPORTING VARIABLES SUCH AS SKY/WEATHER OR
PRESSURE ARE PROVIDED BY THE NEBRASKA DEPARTMENT OF
ROADS...RAWS...AND APRS NETWORKS...AND ARE NOT UNDER
NATIONAL WEATHER SERVICE QUALITY CONTROL***

...OBSERVATIONS IN AND NEAR THE EASTERN PANHANDLE OF NEBRASKA...

CITY           SKY/WX    TMP DP  RH WIND       PRES   REMARKS
PINE RIDGE     CLOUDY    10   5  80 CALM      30.07R
CHADRON        PTCLDY     5  -1  76 W3        30.09R
ALLIANCE       CLOUDY    14   8  77 NW10      30.03R WCI   1
SIDNEY         LGT SNOW  14  11  87 N9        30.02R FOG     WCI   2
WHITECLAY        N/A     11   4  75 CALM        N/A
CRESCENT LAKE    N/A     14  10  85 N10         N/A  WCI   1
LISCO            N/A     20  13  73 W7          N/A  WCI  11
BIG SPRINGS      N/A     18  16  90 CALM        N/A
LEWELLEN         N/A     13  10  87 NW5         N/A  WCI   5
$$

...OBSERVATIONS IN NORTH CENTRAL NEBRASKA...

CITY           SKY/WX    TMP DP  RH WIND       PRES   REMARKS
VALENTINE      CLOUDY    14   2  58 NW9       30.09R WCI   2
THEDFORD       CLOUDY    16  12  85 W5        30.09R WCI   9
AINSWORTH      CLOUDY    16   3  57 NW13      30.08R WCI   2
O`NEILL        CLOUDY    18   5  56 NW10      30.09R WCI   7
ORD            LGT SNOW  18   7  62 NW10      30.13R WCI   6
BROKEN BOW     LGT SNOW  17  11  77 N9        30.11S WCI   6
BROWNLEE         N/A     14   1  56 NW15        N/A  WCI  -2
SPRINGVIEW       N/A     15   4  60 MISG        N/A
BREWSTER         N/A     24   8  50 SW9         N/A  WCI  15
ROSE             N/A     25  12  58 CALM        N/A
NEWPORT          N/A     24  11  57 W12         N/A  WCI  13
SARGENT          N/A     17   9  71 W3G12       N/A
COMSTOCK         N/A     23  18  81 NW6         N/A  WCI  15
CHAMBERS         N/A     18   2  49 W7          N/A  WCI   9
EWING            N/A     17   7  65 W3          N/A
$$

...OBSERVATIONS IN SOUTHWEST NEBRASKA AND FAR NORTHEAST COLORADO...

CITY           SKY/WX    TMP DP  RH WIND       PRES   REMARKS
WRAY           LGT SNOW  20  17  86 NE12      30.04R WCI   8
IMPERIAL         N/A     18  12  77 E6        30.06R WCI  10
OGALLALA       LGT SNOW  17  15  89 CALM      30.07R
NORTH PLATTE   FLURRIES  16  12  84 N6        30.11R WCI   7
MCCOOK         LGT SNOW  20  16  84 N14       30.11R VSB 3/4 WCI   7
LEXINGTON      LGT SNOW  19  15  88 N8        30.13R WCI   8
PAXTON           N/A     17  11  77 CALM        N/A
BRADY            N/A     17  12  82 CALM        N/A
GOTHENBURG       N/A     16  12  85 CALM        N/A
CALLAWAY         N/A     15  11  85 N7          N/A  WCI   5
$$

...NORTH PLATTE AREA...

CITY           SKY/WX    TMP DP  RH WIND       PRES   REMARKS
AIRPORT        FLURRIES  16  12  84 N6        30.11R WCI   7
DOWNTOWN         N/A     15  11  83 CALM        N/A
$$

...SOME WEATHER OBSERVATIONS FROM AROUND THE REGION...

CITY           SKY/WX    TMP DP  RH WIND       PRES   REMARKS
DENVER         LGT SNOW  19  16  88 NE7       29.90S VSB 3/4 WCI  10
LARAMIE        FLURRIES   4   1  88 NW7       29.80R WCI  -8
CHEYENNE       LGT SNOW   8   3  80 N7        29.89R WCI  -3
SCOTTSBLUFF    CLOUDY    16   8  71 NW7       30.05R WCI   6
RAPID CITY     CLEAR      1  -6  72 W3        30.05R
PIERRE         CLEAR      5  -3  69 W8        30.10R WCI  -8
WINNER         FAIR      12   1  61 W9        30.10R WCI   0
SIOUX FALLS    MOCLDY     6  -1  73 NW7       30.08S WCI  -6
OMAHA          PTCLDY    18   7  62 N17       30.13R WCI   3
GRAND ISLAND   MIX PCPN  19   5  54 N20       30.15R WCI   3
KANSAS CITY    CLOUDY    29  20  69 N16G23    30.01R WCI  17
WICHITA        CLOUDY    34  20  56 N15       30.01R WCI  24
HAYS           CLOUDY    27   7  43 NE14      30.08R WCI  15
LIBERAL        CLOUDY    32  21  64 NE16      29.97S WCI  21
GOODLAND       CLOUDY    23  12  62 NE14      29.99R WCI  11
$$



USA.gov is the U.S. government's official web portal to all federal, state and local government web resources and services.